Regional Weather Roundup
Issued by NWS

Home | Current Version | Previous Version | Graphics & Text | Print | Product List | Glossary On
Versions: 1 2 3 4 5 6 7 8 9 10 11 12 13 14 15 16 17 18 19 20 21 22 23 24 25 26 27 28 29 30 31 32 33 34 35 36 37 38 39 40 41 42 43 44 45 46 47 48 49 50
000
ASUS43 KLOT 182312
RWRIL

ILLINOIS REGIONAL WEATHER ROUNDUP
NATIONAL WEATHER SERVICE CHICAGO/ROMEOVILLE IL
600 PM CDT SAT APR 18 2015

NOTE: "FAIR" INDICATES FEW OR NO CLOUDS BELOW 12,000 FEET WITH NO
SIGNIFICANT WEATHER AND/OR OBSTRUCTIONS TO VISIBILITY.

* THESE STATIONS ARE NOT UNDER NWS QUALITY CONTROL. THEY ALSO MAY NOT
  REPORT WEATHER SUCH AS PRECIPITATION OR FOG.

ILZ001-002-007-009-015-016-024-190000-
NORTHWEST ILLINOIS

CITY           SKY/WX    TMP DP  RH WIND       PRES   REMARKS
MOLINE         PTSUNNY   74  54  49 E14       29.89F
STERLING*      PTSUNNY   73  46  38 E18       29.94F
SAVANNA*       PTSUNNY   73  37  27 E14       29.93F
$$

ILZ003-004-008-010-011-017-018-190000-
NORTH CENTRAL ILLINOIS

CITY           SKY/WX    TMP DP  RH WIND       PRES   REMARKS
ROCKFORD       PTSUNNY   70  39  32 E16G22    29.99F
FREEPORT*      MOSUNNY   69  38  32 E13       29.99F
ROCHELLE*      MOSUNNY   71  41  34 E18       29.97F
DE KALB*       PTSUNNY   65  40  40 E13G18    30.00F
PERU*          PTSUNNY   73  46  38 E17       29.93F
$$

ILZ005-006-012>014-019>023-190000-
NORTHEAST ILLINOIS

CITY           SKY/WX    TMP DP  RH WIND       PRES   REMARKS
CHICAGO-OHARE  PTSUNNY   53  34  48 NE14      30.03S
CHICAGO-MIDWAY PTSUNNY   56  36  47 NE10      30.03S
AURORA         PTSUNNY   65  39  38 NE15      29.99F
LANSING*       PTSUNNY   47  36  65 N9        30.03F
JOLIET*        MOSUNNY   64  40  40 NE15      29.99S
WAUKEGAN       MOSUNNY   50  32  50 N16G24    30.04S
DUPAGE AIRPORT PTSUNNY   59  35  40 NE15      30.01S
KANKAKEE*      PTSUNNY   62  45  53 NE14G22   29.97F
WHEELING       PTSUNNY   51  32  48 NE15      30.04R
MORRIS*        MOSUNNY   67  43  41 E13G18    29.96F
ROMEOVILLE*    MOSUNNY   60  37  41 NE14      30.00F
NORTHERLY ISL    N/A     46  36  68 N13         N/A
$$

LMZ740>746-190000-
SOUTHERN LAKE MICHIGAN

STATION/POSITION SKY/WX   TEMP    WIND        PRES    VSBY  WAVE
                          AIR SEA DIR/SP/G                  HT/PER
                          (F)     (DEG/KT/KT) (MB)    (MI)  (FT/S)
HARRISON CRIB              41     340/ 17/ 20   N/A
BURNHAM HARBOR             45     360/ 10/ 18   N/A
CALUMET HARBOR             43     340/ 14/ 18   N/A
BURNS HARBOR               41     360/  5/  7 1017.9F
MICHIGAN CITY              44     310/  4/  5   N/A
MICHIGAN CITY 6N           41 47  330/  4/  6   N/A           3/ 5
$$

ILZ025>027-034>036-040-047-049-050-058-095>099-190000-
WEST-CENTRAL ILLINOIS

CITY           SKY/WX    TMP DP  RH WIND       PRES   REMARKS
QUINCY         PTSUNNY   76  53  44 S12       29.87S
GALESBURG*     MOSUNNY   78  48  34 E10       29.88F
MACOMB*        MOSUNNY   78  47  33 SE16      29.90S
JACKSONVILLE*  MOSUNNY   77  55  46 SE9       29.89S
PITTSFIELD*    MOSUNNY   78  56  46 SE10      29.89S
$$

ILZ028>032-037-038-041>044-048-051>054-059>061-190000-
CENTRAL ILLINOIS

CITY           SKY/WX    TMP DP  RH WIND       PRES   REMARKS
PONTIAC        PTSUNNY   76  52  43 NE15      29.94F
BLOOMINGTON    MOSUNNY   78  48  34 SE16      29.93F
DECATUR        MOSUNNY   75  47  36 SE16      29.92F
PEORIA         PTSUNNY   79  47  32 SE9       29.89F
LACON*         PTSUNNY   77  48  35 E7        29.90F
LINCOLN*       PTSUNNY   78  45  30 SE9       29.89S
SPRINGFIELD    PTSUNNY   77  53  43 SE14      29.90F
TAYLORVILLE    MOSUNNY   72  52  49 SE10      29.91F
$$

ILZ033-039-045-046-055>057-062-063-190000-
EAST-CENTRAL ILLINOIS

CITY           SKY/WX    TMP DP  RH WIND       PRES   REMARKS
CHAMPAIGN      PTSUNNY   78  45  30 E15G23    29.93S
DANVILLE*      PTSUNNY   75  50  41 SE10      29.92S
RANTOUL*       PTSUNNY   79  47  32 SE13      29.93F
MATTOON        MOSUNNY   74  49  41 E7        29.92F
PARIS*         PTSUNNY   75  48  37 E10       29.93F
$$

ILZ079-100>102-190000-
SOUTHWEST ILLINOIS

CITY           SKY/WX    TMP DP  RH WIND       PRES   REMARKS
BELLEVILLE     MOSUNNY   75  58  54 SE9       29.86F
CAHOKIA*       PTSUNNY   76  58  53 SE8       29.86F
SPARTA*        PTSUNNY   75  59  57 E7        29.88F
$$

ILZ064>066-069>071-074>076-080>082-084>086-088>090-092>094-190000-
SOUTH-CENTRAL ILLINOIS

CITY           SKY/WX    TMP DP  RH WIND       PRES   REMARKS
CARBONDALE     PTSUNNY   77  57  50 SE7       29.87S
CAIRO*         PTSUNNY   78  58  49 E6        29.86F
EFFINGHAM*     MOSUNNY   76  47  35 E7        29.92F
MARION         PTSUNNY   79  59  50 E12       29.88S HX  80
MT. VERNON     PTSUNNY   75  55  50 E5        29.90S
CENTRALIA*     PTSUNNY   77  53  43 SE8       29.90R
SALEM*         PTSUNNY   78  54  42 SE6       29.91R
METROPOLIS*    MOSUNNY   79  56  44 SE7       29.86F HX  80
$$

ILZ067-068-072-073-078-083-087-091-190000-
SOUTHEAST ILLINOIS

CITY           SKY/WX    TMP DP  RH WIND       PRES   REMARKS
LAWRENCEVILLE  PTSUNNY   76  51  41 E8        29.91S
FLORA*         PTSUNNY   75  55  48 E6        29.91S
FAIRFIELD*     PTSUNNY   75  56  50 E5        29.89R
HARRISBURG*    PTSUNNY   76  57  51 E8        29.90R
ROBINSON*      PTSUNNY   74  47  38 E6        29.91F
CARMI*         PTSUNNY   76  49  39 SE6       29.90R
$$

ABBREVIATIONS USED IN REMARKS
   TC - TEMPERATURE IN CELSIUS
  WCI - WIND CHILL INDEX
   HX - HEAT INDEX
  VSB - VISIBILITY
$$



USA.gov is the U.S. government's official web portal to all federal, state and local government web resources and services.